Weather History for KGUP - May, 2009

Change the Weather History Date:

Thursday, May 14, 2009

  Actual Average Record
Temperature  
Mean Temperature 64 °F -  
Max Temperature 82 °F 73 °F 86 °F (2006)
Min Temperature 48 °F 33 °F 23 °F (1985)
Degree Days  
Heating Degree Days 1    
Growing Degree Days 14 (Base 50)    
Moisture  
Dew Point 18 °F    
Average Humidity 19    
Maximum Humidity 36    
Minimum Humidity 8    
Precipitation  
Precipitation 0.00 in - - ()
Sea Level Pressure  
Sea Level Pressure 29.68 in    
Wind  
Wind Speed 7 mph (SW)    
Max Wind Speed 20 mph    
Max Gust Speed 30 mph    
Visibility 10 miles    
Events      
Averages and records for this station are not official NWS values.
T = Trace of Precipitation, MM = Missing Value Source: NWS Daily Summary

Daily Weather History Graph

Daily Weather History Graph

Search for Another Location

Airport or City:

Trip Planner

Search our weather history database for the weather conditions in past years. The results will help you decide how hot, cold, wet, or windy it might be!

Date:

Astronomy

May. 14, 2009 Rise Set
Actual Time 6:11 AM MDT 8:12 PM MDT
Civil Twilight 5:42 AM MDT 8:40 PM MDT
Nautical Twilight 5:08 AM MDT 9:15 PM MDT
Astronomical Twilight 4:31 AM MDT 9:52 PM MDT
Moon 12:26 AM MDT (5/14) 10:27 AM MDT (5/14)
Length of Visible Light 14h 57m
Length of Day
14h 01m
Waning Gibbous, 73% of the Moon is Illuminated
May 14
Waning Gibbous
May 17
Last Quarter
May 24
New
May 30
First Quarter
Jun 7
Full

Hourly Weather History & Observations

Time (MDT) Temp. Dew Point Humidity Pressure Visibility Wind Dir Wind Speed Gust Speed Precip Events Conditions
12:53 AM 51.1 °F 19.0 °F 28% 29.72 in 10.0 mi Calm Calm - N/A   Clear
1:53 AM 50.0 °F 21.0 °F 32% 29.72 in 10.0 mi Calm Calm - N/A   Clear
2:53 AM 50.0 °F 19.9 °F 31% 29.71 in 10.0 mi NNE 4.6 mph - N/A   Clear
3:53 AM 51.1 °F 21.0 °F 31% 29.69 in 10.0 mi South 10.4 mph - N/A   Clear
4:53 AM 48.9 °F 21.0 °F 33% 29.71 in 10.0 mi Calm Calm - N/A   Clear
5:53 AM 50.0 °F 21.9 °F 33% 29.71 in 10.0 mi SW 4.6 mph - N/A   Clear
6:53 AM 48.0 °F 21.9 °F 36% 29.75 in 10.0 mi WSW 3.5 mph - N/A   Clear
7:53 AM 60.1 °F 26.1 °F 27% 29.70 in 10.0 mi SW 4.6 mph - N/A   Clear
8:53 AM 64.9 °F 25.0 °F 22% 29.75 in 10.0 mi South 10.4 mph - N/A   Clear
9:53 AM 69.1 °F 25.0 °F 19% 29.76 in 10.0 mi SW 11.5 mph - N/A   Clear
10:53 AM 72.0 °F 23.0 °F 16% 29.73 in 10.0 mi SSW 9.2 mph 21.9 mph N/A   Clear
11:53 AM 75.0 °F 21.9 °F 14% 29.71 in 10.0 mi West 8.1 mph 20.7 mph N/A   Clear
12:53 PM 78.1 °F 17.1 °F 10% 29.69 in 10.0 mi West 19.6 mph 24.2 mph N/A   Clear
1:53 PM 79.0 °F 16.0 °F 9% 29.68 in 10.0 mi WSW 10.4 mph 20.7 mph N/A   Clear
2:53 PM 80.1 °F 15.1 °F 9% 29.65 in 10.0 mi SW 15.0 mph 28.8 mph N/A   Clear
3:53 PM 79.0 °F 12.9 °F 8% 29.64 in 10.0 mi SW 16.1 mph 29.9 mph N/A   Clear
4:53 PM 80.1 °F 12.9 °F 8% 29.62 in 10.0 mi West 17.3 mph 23.0 mph N/A   Clear
5:53 PM 79.0 °F 12.9 °F 8% 29.62 in 10.0 mi WSW 13.8 mph 25.3 mph N/A   Clear
6:53 PM 78.1 °F 10.9 °F 8% 29.63 in 10.0 mi West 18.4 mph 23.0 mph N/A   Clear
7:53 PM 73.0 °F 10.9 °F 9% 29.58 in 10.0 mi WSW 11.5 mph - N/A   Clear
8:53 PM 66.0 °F 10.9 °F 12% 29.61 in 10.0 mi WSW 10.4 mph - N/A   Clear
9:53 PM 63.0 °F 12.0 °F 14% 29.63 in 10.0 mi SW 5.8 mph - N/A   Clear
10:53 PM 61.0 °F 12.9 °F 15% 29.63 in 10.0 mi SW 8.1 mph - N/A   Clear
11:53 PM 61.0 °F 16.0 °F 17% 29.63 in 10.0 mi WSW 6.9 mph - N/A   Clear